Showing default

UWE-1, 28892

Orbit data source: Space-Track

UWE-1, 28892 is a payload satellite owned by U Wurzburg (DE) in SSO that was launched on Thu, 27 Oct 2005 UTC via a KOSMOS 11K65M launch vehicle from the Plesetsk Missile And Space Complex (PKMTR). Payload-class satellites include a variety of spacecraft equipped with specific instruments for various scientific and technological missions. These include communications satellites like Starlink; space stations such as the ISS; scientific satellites like the Hubble; Earth observation satellites from companies like Planet Labs, Umbra, and HawkEye 360; GPS; miniature CubeSats for education and research; and military/defense satellites.

Loading next visibility...
Identifier
28892, 2005-043C
Orbit
SSO
Last TLE update
14 hours ago
Origin
Manufacturer
U Wurzburg
Mission
Non-operational Amateur Communications
Bus & Motor
CUBESAT 1U, Unknown motor
Mass
1 kg wet, 1 kg dry
Launch date (UTC)
2005-10-27 (20 years ago)
Launch vehicle
KOSMOS 11K65M
Launch site
Plesetsk Missile And Space Complex (PKMTR)
Object type
Payload
Rocket body
Debris
Shape & HBR
Box, 0.1 m
Radar Cross Section
0.015 m², Small (<0.1 m²)

Expand to show TLE details & history

TLE from 14 hours ago
0 UWE-1
1 28892U 05043C   25188.97476342  .00001058  00000-0  18214-3 0  9990
2 28892  98.2616 334.1600 0013407 216.0680 143.9623 14.70655541 51415
Epoch: 2025-07-07T23:23Z
TLE epoch observation values (Epoch: 2025-07-07T23:23:39.559Z)
Latitude
0.00004°
Longitude
57.06877°
Altitude
669.609 km
Speed
7.518 km/s
True Right ascension
22h 16m 38s
True Declination
0° 00' 00"
Sunlit
Object was in full shadow at epoch
Visualization orbit readout
Latitude
-6.10793°
Longitude
-123.22954°
Altitude
654.649 km
Speed
7.534 km/s
Apparent Right ascension
11h 32m 23s
Apparent Declination
-23° 46' 53"
Sunlit
Object is in daylight
Visualization observer readout
Local Sidereal Time
01:24:36
Azimuth
64.108° ENE
Elevation
-61.419°
Doppler factor
1
Orbital elements
Apogee altitude
665.477 km
Perigee altitude
646.615 km
Semi-major axis
7,034.183 km
Eccentricity
0.00134
Inclination
98.2616°
RAAN
334.16°
Arg. of periapsis
216.068°
True anomaly
Unknown
Mean anomaly
143.9623°
Eccentric anomaly
Unknown
Mean motion
3.67894 °/min
Orbital period
97.85 mins
BSTAR
0.00018214
Loading maneuver chart data...
Loading SW <> Apogee altitude chart data...
Loading historical data...
Loading historical data...
Loading historical data...
Loading historical data...
Loading historical data...
Loading historical data...
Loading historical data...

UWE-1 Visibility forecast

Observer location: undefined°, undefined°

Span
Click to sort rows by Start time (UTC) header in descending order
Start Az.
Max El. time (UTC)
Max El. Az.
Max El.
End time (UTC)
End Az.
7 mins2025-07-08 22:50:05.223Z3.441° NNE2025-07-08 22:53:05.223Z290.86° WNW42.31°2025-07-08 22:57:05.223Z205.394° SW
7 mins2025-07-09 09:49:05.223Z174.157° S2025-07-09 09:52:05.223Z266.928° W44.078°2025-07-09 09:56:05.223Z343.039° N
|